STARLINK-36473, 67325

Orbit data source: Space-Track

STARLINK-36473, 67325 is a payload satellite owned by SpaceX/Seattle (US) in LEO that was launched on Sun, 04 Jan 2026 UTC via an FALCON 9 launch vehicle from the Air Force Eastern Test Range (AFETR). Payload-class satellites include a variety of spacecraft equipped with specific instruments for various scientific and technological missions. These include communications satellites like Starlink; space stations such as the ISS; scientific satellites like the Hubble; Earth observation satellites from companies like Planet Labs, Umbra, and HawkEye 360; GPS; miniature CubeSats for education and research; and military/defense satellites.

Loading next visibility...
Identifier
67325, 2026-002W
Orbit
LEO
Country
Flag of USUS
Related business
Manufacturer
SpaceX/Seattle
Mission
Operational spacecraft
Bus & Motor
STARLINK V2MO, Unknown motor
Mass
575 kg wet, ~530 kg dry
Launch date (UTC)
2026-01-04 (2 weeks ago)
Launch vehicle
FALCON 9
Launch site
Air Force Eastern Test Range (AFETR)
Object type
Payload
Rocket body
Debris
Shape & HBR
Unknown shape, 17.7 m
Radar Cross Section
RCS unknown

Expand to show TLE details & history
Last TLE update: 12 hours ago

TLE from 12 hours ago
0 STARLINK-36473
1 67325U 26002W   26014.25002315 -.01602516  71324-3 -47943-2 0  9996
2 67325  42.9984 280.3885 0001866 281.2897 145.9482 15.91523410  2829
Epoch: 2026-01-14T06:00Z
TLE epoch observation values (Epoch: 2026-01-14T06:00:02.000Z)
Latitude
39.12119°
Longitude
136.80174°
Altitude
301.292 km
Speed
7.732 km/s
True Right ascension
22h 42m 07s
True Declination
38° 56' 29"
Sunlit
Object was in daylight at epoch
Visualization orbit readout
Latitude
Unknown
Longitude
Unknown
Altitude
Unknown
Speed
Unknown
Apparent Right ascension
Unknown
Apparent Declination
Unknown
Sunlit
N/A
Visualization observer readout
Local Sidereal Time
18:32:30
Azimuth
Unknown
Elevation
Unknown
Doppler factor
Unknown
Orbital elements
Apogee altitude
301.264 km
Perigee altitude
298.772 km
Semi-major axis
6,678.155 km
Eccentricity
0.00019
Inclination
42.9984°
RAAN
280.3885°
Arg. of periapsis
281.2897°
True anomaly
145.96017°
Mean anomaly
145.9482°
Eccentric anomaly
145.95419°
Mean motion
3.97703 °/min
Orbital period
90.52 mins
BSTAR
-0.0047943
Loading maneuver chart data...
Computing Atmospheric mass density...
Loading historical data...
Loading historical data...
Loading historical data...
Loading historical data...
Loading historical data...
Loading historical data...
Loading historical data...

Documentation

Showing up to 5 results
|